This demonstration page uses our WeatherBlox Daily Observations layout. Learn more.

Left ArrowRight Arrow

34.02893, -84.19858

Hourly Observations for May 29, 2015

Temp ( °F °C ) Dew Point ( °F °C ) Humidity (%) Winds ( mph kmh ) Pressure ( in mb ) Visibility ( mi km ) Precip ( " mm )
12:53 am 00:53 Clear with Mist and Fog 69 20.6 67 19.4 93 93 VRB 3 6 30.15 1021 6 10 0.00 0.00
1:53 am 01:53 Clear 67 19.4 66 18.9 97 97 E 5 7 30.13 1020 7 11 0.00 0.00
2:53 am 02:53 Clear 67 19.4 65 18.3 93 93 VRB 6 9 30.11 1020 7 11 0.00 0.00
3:53 am 03:53 Clear with Mist and Fog 66 18.9 65 18.3 96 96 VRB 5 7 30.11 1020 6 10 0.00 0.00
4:53 am 04:53 Clear with Mist and Fog 66 18.9 65 18.3 96 96 Calm 30.13 1020 6 10 0.00 0.00
5:53 am 05:53 Mostly Clear with Mist and Fog 65 18.3 64 17.8 97 97 Calm 30.15 1021 4 6 0.00 0.00
6:22 am 06:22 Mostly Cloudy with Mist and Fog 64 18 64 18 100 100 Calm 30.15 1021 5 8 0.00 0.00
6:53 am 06:53 Cloudy with Mist and Fog 66 18.9 65 18.3 96 96 Calm 30.16 1021 4 6 0.00 0.00
7:23 am 07:23 Cloudy with Mist and Fog 66 18.9 66 18.9 100 100 VRB 3 6 30.18 1022 1 2 0.00 0.00
7:47 am 07:47 Cloudy with Mist and Fog 66 19 64 18 94 94 VRB 3 6 30.18 1022 1 1 0.00 0.00
7:53 am 07:53 Cloudy with Mist and Fog 66 18.9 66 18.9 100 100 Calm 30.18 1022 2 2 0.00 0.00
8:53 am 08:53 Cloudy with Mist and Fog 68 20 66 18.9 93 93 E 3 6 30.19 1023 2 2 0.00 0.00
8:56 am 08:56 Mostly Cloudy 68 20 66 19 94 94 E 3 6 30.21 1023 8 13 0.00 0.00
9:44 am 09:44 Mostly Cloudy with Haze 72 22 66 19 83 83 VRB 3 6 30.21 1023 6 10 0.00 0.00
9:53 am 09:53 Mostly Cloudy with Haze 72 22.2 67 19.4 84 84 ESE 3 6 30.20 1023 6 10 0.00 0.00
10:42 am 10:42 Mostly Cloudy 73 23 66 19 78 78 Calm 30.21 1023 7 11 0.00 0.00
10:53 am 10:53 Mostly Cloudy 75 23.9 66 18.9 74 74 VRB 6 9 30.20 1023 7 11 0.00 0.00
11:53 am 11:53 Mostly Cloudy 77 25 66 18.9 69 69 VRB 5 7 30.21 1023 8 13 0.00 0.00
12:00 pm 12:00 Partly Cloudy 77 25 64 18 65 65 VRB 3 6 30.21 1023 8 13 0.00 0.00
12:53 pm 12:53 Partly Cloudy 79 26.1 64 17.8 60 60 Calm 30.20 1023 8 13 0.00 0.00
1:53 pm 13:53 Partly Cloudy 80 26.7 65 18.3 60 60 SE 7 11 30.18 1022 8 13 0.00 0.00
2:53 pm 14:53 Sunny 82 27.8 65 18.3 56 56 ESE 9 15 30.15 1021 8 13 0.00 0.00
3:53 pm 15:53 Mostly Sunny 83 28.3 65 18.3 55 55 SSE 8 13 30.13 1020 9 14 0.00 0.00
4:53 pm 16:53 Sunny 82 27.8 61 16.1 49 49 VRB 7 11 30.11 1020 10 16 0.00 0.00
5:53 pm 17:53 Sunny 83 28.3 62 16.7 49 49 SSE 8 13 30.11 1020 9 14 0.00 0.00
6:53 pm 18:53 Mostly Sunny 81 27.2 63 17.2 54 54 SE 7 11 30.09 1019 9 14 0.00 0.00
7:53 pm 19:53 Hazy 79 26.1 63 17.2 58 58 SE 6 9 30.10 1019 5 8 0.00 0.00
8:53 pm 20:53 Clear 76 24.4 64 17.8 67 67 SE 3 6 30.11 1020 8 13 0.00 0.00
9:53 pm 21:53 Clear 73 22.8 64 17.8 74 74 undefined N/A 30.11 1020 9 14 0.00 0.00
10:53 pm 22:53 Clear 71 21.7 63 17.2 76 76 undefined N/A 30.13 1020 9 14 0.00 0.00
11:53 pm 23:53 Clear 69 20.6 63 17.2 81 81 Calm 30.13 1020 8 13 0.00 0.00

Powered by AerisWeather